Weather in Kulikovo

Russia / Republic of Mordovia     54°24′37″N   43°38′54″E
temp.,
°C
wind,
m/s
gust,
m/s
humid.,
%
clouds,
%
prec.,
mm/h
press.,
hPa
HPBL,
m
23 september, thu
thu2300:00+8e359226 0.0 101583
03:00+9e51095100 0.0 1015399
06:00+9e51094100 0.2 1014401
09:00+11se599091 0.4 1014569
12:00+15sse6861100 0.1 10141550
15:00+15sse6756100 0.1 10131520
18:00+10sse5893100 1.3 1014357
21:00+9sse3596100 6.9 1014346
24 september, fri
fri2400:00+9sse2495100 2.1 1013271
03:00+9sse2493100 2.3 1012178
06:00+9s249161 0.0 1012150
09:00+10ssw3479100 0.0 1012481
12:00+13s3460100 0.0 1010992
15:00+14s455495 0.0 10101625
18:00+11se366835 0.0 1009131
21:00+9se368393 0.0 1009128
25 september, sat
sat2500:00+9se3686100 0.1 1009153
03:00+8ese2292100 0.1 100420
06:00+9e2490100 0.0 1008117
09:00+10ese2385100 0.1 1008191
12:00+13nw0068100 0.3 1008299
15:00+13nnw1266100 0.6 1008395
18:00+11n1175100 0.0 100911
21:00+9wnw018397 0.0 101010
26 september, sun
sun2600:00+8wsw2284100 0.0 101013
03:00+8w2279100 0.0 101030
06:00+8w3590100 0.0 1010111
09:00+9ssw1285100 0.6 1010145
12:00+12s2266100 0.1 1010735
15:00+13wnw2261100 0.3 10111011
18:00+11n2372100 0.1 101170
21:00+9ne3688100 0.7 1012270
27 september, mon
mon2700:00+9nne4690100 0.2 1013237
03:00+7nne489625 0.2 1015235
06:00+6nne369731 0.0 1017138
09:00+10ne568250 0.0 1018583
12:00+8ne4889100 0.1 1020640
15:00+8ne6986100 0.1 1023619
18:00+6ne61189100 0.2 1025596
21:00+6ene61093100 0.4 1026846